This demonstration page uses our WeatherBlox Daily Observations layout. Learn more.

40.92945, -100.16068

Hourly Observations for June 29, 2019

Temp ( °F °C ) Dew Point ( °F °C ) Humidity (%) Winds ( mph kmh ) Pressure ( in mb ) Visibility ( mi km ) Precip ( " mm )
12:15 am 00:15 Clear 72 22.1 67 19.3 84 84 ESE 5 7 29.94 1014 10 16.09344 0 0
12:35 am 00:35 Clear 73 23 67 19.6 81 81 ESE 6 9 29.94 1014 10 16.09344 0 0
12:55 am 00:55 Clear 73 22.9 67 19.2 80 80 ESE 8 13 29.94 1014 10 16.09344 0 0
1:15 am 01:15 Clear 74 23.3 66 19.1 77 77 SE 6 9 29.94 1014 10 16.09344 0 0
1:35 am 01:35 Clear 72 22 66 18.7 82 82 SE 3 6 29.94 1014 7 11.265408 0 0
1:55 am 01:55 Clear 72 22.4 65 18.4 78 78 SE 6 9 29.94 1014 10 16.09344 0 0
2:15 am 02:15 Clear 72 22 64 18 78 78 SSE 3 6 29.94 1014 10 16.09344 0 0
2:35 am 02:35 Clear 72 22.1 64 18 78 78 SSE 5 7 29.94 1014 10 16.09344 0 0
2:55 am 02:55 Clear 73 22.6 65 18.1 76 76 ESE 5 7 29.94 1014 10 16.09344 0 0
3:15 am 03:15 Clear 69 20.3 64 18 87 87 E 5 7 29.94 1014 10 16.09344 0 0
3:35 am 03:35 Clear 71 21.9 64 18 79 79 SSE 3 6 29.94 1014 10 16.09344 0 0
3:55 am 03:55 Clear 71 21.8 64 17.8 78 78 ESE 3 6 29.94 1014 10 16.09344 0 0
4:15 am 04:15 Clear 72 22.1 64 17.9 77 77 SE 6 9 29.94 1014 10 16.09344 0 0
4:35 am 04:35 Clear 71 21.9 64 18 79 79 SE 5 7 29.94 1014 10 16.09344 0 0
4:55 am 04:55 Clear 71 21.4 64 17.9 81 81 SE 5 7 29.94 1014 10 16.09344 0 0
5:15 am 05:15 Clear 72 22 64 18 78 78 SE 5 7 29.94 1014 10 16.09344 0 0
5:35 am 05:35 Clear 70 21.3 64 18 82 82 ESE 6 9 29.94 1014 10 16.09344 0 0
5:55 am 05:55 Clear 71 21.4 65 18.5 84 84 SE 6 9 29.94 1014 10 16.09344 0 0
6:15 am 06:15 Sunny 69 20.5 65 18.2 87 87 SE 5 7 29.94 1014 10 16.09344 0 0
6:35 am 06:35 Sunny 69 20.5 65 18.3 87 87 SE 6 9 29.94 1014 10 16.09344 0 0
6:55 am 06:55 Sunny 71 21.4 66 18.7 85 85 SSE 6 9 29.94 1014 10 16.09344 0 0
7:15 am 07:15 Sunny 71 21.8 66 19 84 84 SSE 6 9 29.94 1014 10 16.09344 0 0
7:35 am 07:35 Sunny 73 23 66 19.1 79 79 SSE 6 9 29.94 1014 10 16.09344 0 0
7:55 am 07:55 Sunny 75 23.7 67 19.5 77 77 SSE 5 7 29.91 1013 10 16.09344 0 0
8:15 am 08:15 Sunny 76 24.7 67 19.5 73 73 S 7 11 29.91 1013 10 16.09344 0 0
8:35 am 08:35 Sunny 78 25.5 67 19.6 70 70 S 8 13 29.91 1013 10 16.09344 0 0
8:55 am 08:55 Sunny 79 26.2 67 19.6 67 67 S 6 9 29.91 1013 10 16.09344 0 0
9:15 am 09:15 Sunny 80 26.7 67 19.4 64 64 S 7 11 29.91 1013 10 16.09344 0 0
9:35 am 09:35 Sunny 82 27.5 67 19.4 61 61 SSE 8 13 29.88 1012 10 16.09344 0 0
9:55 am 09:55 Sunny 82 27.9 68 19.8 61 61 S 9 15 29.88 1012 10 16.09344 0 0
10:15 am 10:15 Sunny 84 28.8 68 20 59 59 SSE 9 15 29.88 1012 10 16.09344 0 0
10:35 am 10:35 Sunny 85 29.2 69 20.3 59 59 S 9 15 29.88 1012 10 16.09344 0 0
10:55 am 10:55 Sunny 86 29.9 68 20 55 55 S 14 22 29.88 1012 10 16.09344 0 0
11:15 am 11:15 Sunny 87 30.7 69 20.5 55 55 SSE 10 17 29.88 1012 10 16.09344 0 0
11:35 am 11:35 Sunny 88 31.1 68 20.2 52 52 S 14 22 29.85 1011 10 16.09344 0 0
11:55 am 11:55 Sunny 89 31.4 69 20.4 52 52 S 15 24 29.85 1011 10 16.09344 0 0
12:15 pm 12:15 Sunny 90 32.1 69 20.4 50 50 SSE 14 22 29.85 1011 10 16.09344 0 0
12:35 pm 12:35 Sunny 91 32.8 69 20.6 49 49 SSE 12 19 29.85 1011 10 16.09344 0 0
12:55 pm 12:55 Sunny 93 33.7 68 19.8 44 44 S 13 20 29.85 1011 10 16.09344 0 0
1:15 pm 13:15 Sunny 93 34.1 68 20.1 44 44 SSE 13 20 29.85 1011 10 16.09344 0 0
1:35 pm 13:35 Sunny 94 34.7 69 20.4 43 43 SSE 17 28 29.83 1010 10 16.09344 0 0
1:55 pm 13:55 Sunny 94 34.7 69 20.4 43 43 SSE 18 30 29.83 1010 10 16.09344 0 0
2:15 pm 14:15 Sunny 95 34.9 70 21 44 44 SSE 14 22 29.83 1010 10 16.09344 0 0
2:35 pm 14:35 Sunny 95 35.2 70 20.9 43 43 SSE 16 26 29.83 1010 10 16.09344 0 0
2:55 pm 14:55 Partly Cloudy 97 35.9 69 20.4 40 40 S 14 22 29.8 1009 10 16.09344 0 0
3:15 pm 15:15 Partly Cloudy 97 36.2 69 20.7 40 40 S 14 22 29.8 1009 10 16.09344 0 0
3:35 pm 15:35 Sunny 98 36.5 68 20 38 38 S 20 31 29.8 1009 10 16.09344 0 0
3:55 pm 15:55 Sunny 99 37 69 20.5 38 38 S 15 24 29.8 1009 10 16.09344 0 0
4:15 pm 16:15 Sunny 99 37.1 69 20.3 37 37 S 13 20 29.8 1009 10 16.09344 0 0
4:35 pm 16:35 Sunny 99 37.1 67 19.6 36 36 S 15 24 29.8 1009 10 16.09344 0 0
4:55 pm 16:55 Sunny 99 37.3 65 18.2 32 32 S 17 28 29.8 1009 10 16.09344 0 0
5:15 pm 17:15 Sunny 99 37.4 64 18 32 32 S 14 22 29.8 1009 10 16.09344 0 0
5:35 pm 17:35 Sunny 99 37.1 63 17 30 30 S 18 30 29.8 1009 10 16.09344 0 0
5:55 pm 17:55 Sunny 99 37 64 17.6 32 32 SSE 14 22 29.8 1009 10 16.09344 0 0
6:15 pm 18:15 Sunny 98 36.4 64 18 34 34 SSE 16 26 29.77 1008 10 16.09344 0 0
6:35 pm 18:35 Sunny 97 35.9 64 17.8 34 34 SSE 16 26 29.77 1008 10 16.09344 0 0
6:55 pm 18:55 Sunny 96 35.5 65 18.1 36 36 SSE 14 22 29.77 1008 10 16.09344 0 0
7:15 pm 19:15 Sunny 95 34.8 64 17.8 36 36 SSE 15 24 29.77 1008 10 16.09344 0 0
7:35 pm 19:35 Sunny 94 34.2 65 18.4 39 39 SE 8 13 29.77 1008 10 16.09344 0 0
7:55 pm 19:55 Sunny 92 33.3 67 19.4 44 44 SE 10 17 29.83 1010 10 16.09344 0 0
8:15 pm 20:15 Sunny 90 32.4 67 19.6 47 47 SE 10 17 29.83 1010 10 16.09344 0 0
8:35 pm 20:35 Sunny 88 31.3 66 19 48 48 SE 10 17 29.83 1010 10 16.09344 0 0
8:55 pm 20:55 Sunny 86 30.2 67 19.2 52 52 SE 12 19 29.85 1011 10 16.09344 0 0
9:15 pm 21:15 Clear 85 29.2 67 19.5 56 56 SE 10 17 29.85 1011 10 16.09344 0 0
9:35 pm 21:35 Clear 84 28.7 67 19.3 57 57 SE 12 19 29.85 1011 10 16.09344 0 0
9:55 pm 21:55 Clear 82 27.9 66 18.8 58 58 SSE 10 17 29.85 1011 10 16.09344 0 0
10:15 pm 22:15 Clear 81 27.2 65 18.2 58 58 SSE 10 17 29.91 1013 10 16.09344 0 0
10:35 pm 22:35 Clear 81 27.1 64 18 58 58 SSE 9 15 29.91 1013 10 16.09344 0 0
10:55 pm 22:55 Clear 80 26.8 64 18 59 59 SSE 10 17 29.91 1013 10 16.09344 0 0
11:15 pm 23:15 Clear 80 26.6 65 18.4 61 61 SSE 10 17 29.91 1013 10 16.09344 0 0
11:35 pm 23:35 Clear 80 26.7 65 18.3 60 60 SSE 12 19 29.91 1013 10 16.09344 0 0
11:55 pm 23:55 Clear 80 26.4 65 18.4 62 62 SSE 10 17 29.91 1013 10 16.09344 0 0

Powered by AerisWeather